カタログに戻る

STARLINK-34470

運用中通信VLEO
NORAD 64703·PAYLOAD·🇺🇸 United States

打ち上げ Jun 28, 2025 から Vandenberg Space Force Base

Loading…

次のパス (今後24時間)

TLE

最新Source: CelesTrak SupGP

元期: Sep 15, 2026, 03:23 UTC

1 64703C 25142H   26258.14145833 -.00065696  00000+0 -22856-2 0  2582
2 64703  70.0013 195.2353 0003096 271.9126 206.6176 15.29609064    18

AllMySatでSTARLINK-34470をリアルタイム追跡

Download on the App Store